Regional Weather Roundup
Issued by NWS Huntsville, AL

Home | Current Version | Previous Version | Text Only | Print | Product List | Glossary On
Versions: 1 2 3 4 5 6 7 8 9 10 11 12 13 14 15 16 17 18 19 20 21 22 23 24 25 26 27 28 29 30 31 32 33 34 35 36 37 38 39 40 41 42 43 44 45 46 47 48 49 50
000
ASUS44 KHUN 191710
RWRHUN

WEATHER ROUNDUP FOR THE TENNESSEE VALLEY
NATIONAL WEATHER SERVICE HUNTSVILLE AL
1100 AM CST SUN NOV 19 2017

ALZ001>004-191800-
NORTHWEST ALABAMA

CITY           SKY/WX    TMP DP  RH WIND       PRES   REMARKS
COURTLAND HCN    N/A     45 N/A N/A NW9         N/A
RUSSELLVILLE     N/A     46 N/A N/A MISG        N/A
SHOALS AIRPORT SUNNY     49  25  39 NW12      30.19F
SHOALS TVA RES   N/A     45 N/A N/A MISG        N/A
$$

ALZ005>007-016-191800-
NORTH CENTRAL ALABAMA

CITY           SKY/WX    TMP DP  RH WIND       PRES   REMARKS
CULLMAN AG STN   N/A     45 N/A N/A N8          N/A
DECATUR AP     SUNNY     46  33  60 NW13      30.16F
HUNTSVILLE AP  MOSUNNY   49  34  56 W8        30.15F
MERIDIANVILLE  MOSUNNY   46  32  57 NW10G16   30.14F
REDSTONE ARSN  PTSUNNY   47  33  58 N10       30.13F
VINEMONT AP    FAIR      47  31  54 NW8G16    30.16F
$$

ALZ008>010-191800-
NORTHEAST ALABAMA

CITY           SKY/WX    TMP DP  RH WIND       PRES   REMARKS
ALBERTVILLE    MOSUNNY   46  37  71 NW14G20   30.12R
FORT PAYNE     MOSUNNY   46  30  53 N13       30.10S
SCOTTSBORO AP  MOSUNNY   48  32  53 N13       30.13S
SCOTTSBORO HCN   N/A     48 N/A N/A MISG        N/A
VALLEY HEAD      N/A     46 N/A N/A MISG        N/A
$$

TNZ076-096-097-191800-
SOUTHEASTERN MIDDLE TENNESSEE

CITY           SKY/WX    TMP DP  RH WIND       PRES   REMARKS
TULLAHOMA      PTSUNNY   43  30  61 NW13G21   30.13S
WINCHESTER     CLOUDY    41  30  65 NW8       30.14S
$$

...SURROUNDING SITES...

CITY           SKY/WX    TMP DP  RH WIND       PRES   REMARKS
ATLANTA        MOSUNNY   52  36  54 NW14      30.03F
ANNISTON       SUNNY     51  34  52 W9        30.11F
BIRMINGHAM     MOSUNNY   51  34  52 N13       30.16S
CHATTANOOGA    PTSUNNY   49  31  49 NW13      30.12R
CORINTH        FAIR      48  28  46 W12       30.22R
DALTON         MOSUNNY   46  34  61 N12G22    30.10F
GADSDEN        SUNNY     51  35  54 NW12G17   30.13S
GOLDEN TRNGL   SUNNY     52  33  48 N12       30.22F
HALEYVILLE     FAIR      46  31  55 N9        30.18F
JACKSON TN     MOSUNNY   46  29  51 N14       30.23S
MEMPHIS        SUNNY     49  26  41 N10G22    30.25S
NASHVILLE      MOSUNNY   45  25  45 NW13G20   30.17R
ROME           MOSUNNY   52  35  52 VRB7      30.08F
SAVANNAH       SUNNY     45  28  53 N12G21    30.20S
SELMER         SUNNY     45  27  49 VRB8G16   30.21R
TUPELO         SUNNY     49  24  37 W12G20    30.21F
TUSCALOOSA     LGT RAIN  52  35  52 NW13G21   30.19S
$$

...GULF COAST WEATHER...

CITY           SKY/WX    TMP DP  RH WIND       PRES   REMARKS
GULFPORT       SUNNY     59  33  37 N14G23    30.16F
PASCAGOULA     SUNNY     58  32  37 N16G23    30.15F
MOBILE         MOSUNNY   57  33  40 N17       30.15F
GULF SHORES    SUNNY     58  35  42 N13       30.12F
PENSACOLA      SUNNY     60  37  42 N10G20    30.10F
DESTIN         SUNNY     62  38  40 N12       30.08F
PANAMA CITY    SUNNY     62  43  50 N16       30.05S
APPALACHICOLA  SUNNY     65  48  54 N12       30.01S
$$




USA.gov is the U.S. government's official web portal to all federal, state and local government web resources and services.